This is the latest recevied weather packets stored in our database for station/object N4DBJ. If no packets are shown the sender has not sent any weather packets the latest 10 day(s).
| Time | Temp. | Humidity | Pressure | Rain* | Wind** | Luminosity | Snow |
|---|---|---|---|---|---|---|---|
| 1777292617 | 17.78° C | 83% | 1013 hPa | 0 mm | - | 75 W/m² | - |
| 1777292312 | 17.78° C | 83% | 1012.9 hPa | 0 mm | - | 55 W/m² | - |
| 1777292009 | 17.78° C | 82% | 1013 hPa | 0 mm | - | 49 W/m² | - |
| 1777291706 | 17.22° C | 83% | 1012.8 hPa | 0 mm | - | 46 W/m² | - |
| 1777291403 | 17.22° C | 83% | 1012.8 hPa | 0 mm | - | 44 W/m² | - |
| 1777291100 | 17.22° C | 83% | 1012.6 hPa | 0 mm | - | 41 W/m² | - |
| 1777290796 | 17.22° C | 82% | 1012.6 hPa | 0 mm | - | 39 W/m² | - |
| 1777290493 | 16.67° C | 83% | 1012.4 hPa | 0 mm | - | 37 W/m² | - |
| 1777290189 | 16.67° C | 83% | 1012.2 hPa | 0 mm | - | 31 W/m² | - |
| 1777289886 | 16.67° C | 82% | 1012.3 hPa | 0 mm | - | 26 W/m² | - |
| 1777289582 | 16.67° C | 82% | 1012.2 hPa | 0 mm | - | 22 W/m² | - |
| 1777289277 | 16.67° C | 82% | 1011.8 hPa | 0 mm | - | 17 W/m² | - |
| 1777288974 | 16.67° C | 82% | 1011.7 hPa | 0 mm | - | 13 W/m² | - |
| 1777288671 | 16.67° C | 82% | 1011.8 hPa | 0 mm | - | 9 W/m² | - |
| 1777288368 | 16.67° C | 82% | 1011.8 hPa | 0 mm | - | 6 W/m² | - |
| 1777288064 | 16.67° C | 82% | 1011.7 hPa | 0 mm | - | 2 W/m² | - |
| 1777287761 | 16.67° C | 82% | 1011.7 hPa | 0 mm | - | 0 W/m² | - |
| 1777287458 | 16.67° C | 82% | 1011.5 hPa | 0 mm | - | 0 W/m² | - |
| 1777287153 | 16.67° C | 83% | 1011.5 hPa | 0 mm | - | 0 W/m² | - |
| 1777286850 | 16.67° C | 82% | 1011.4 hPa | 0 mm | - | 0 W/m² | - |
| 1777286548 | 16.67° C | 83% | 1011.8 hPa | 0 mm | - | 0 W/m² | - |
| 1777286245 | 16.67° C | 83% | 1011.8 hPa | 0 mm | - | 0 W/m² | - |
| 1777285942 | 16.67° C | 82% | 1011.8 hPa | 0 mm | - | 0 W/m² | - |
| 1777285638 | 16.67° C | 81% | 1011.4 hPa | 0 mm | - | 0 W/m² | - |
| 1777285337 | 16.67° C | 81% | 1011.4 hPa | 0 mm | - | 0 W/m² | - |
* Rain latest hour (hover to see other rain measurements)
** Current wind speed in m/s (hover to see current wind gust speed)